STARLINK-3054, 49167

Orbit data source: Space-Track

STARLINK-3054, 49167 is a payload satellite owned by SpaceX/Seattle (US) in LEO that was launched on Tue, 14 Sep 2021 UTC via an FALCON 9 launch vehicle from the Air Force Western Test Range (AFWTR). Payload-class satellites include a variety of spacecraft equipped with specific instruments for various scientific and technological missions. These include communications satellites like Starlink; space stations such as the ISS; scientific satellites like the Hubble; Earth observation satellites from companies like Planet Labs, Umbra, and HawkEye 360; GPS; miniature CubeSats for education and research; and military/defense satellites.

Loading next visibility...
Identifier
49167, 2021-082AP
Orbit
LEO
Country
Flag of USUS
Related business
Manufacturer
SpaceX/Seattle
Mission
Operational Commercial Communications
Bus & Motor
STARLINK, Unknown motor
Mass
297 kg wet, ~275 kg dry
Launch date (UTC)
2021-09-14 (5 years ago)
Launch vehicle
FALCON 9
Launch site
Air Force Western Test Range (AFWTR)
Object type
Payload
Rocket body
Debris
Shape & HBR
Box + 1 Pan, 10.1 m
Radar Cross Section
13.562 m², Large (>1 m²)

Expand to show TLE details & history
Last TLE update: 2 days ago

TLE from 2 days ago
0 STARLINK-3054
1 49167U 21082AP  26171.34072096  .00000086  00000-0  15028-4 0  9992
2 49167  69.9999  35.6310 0003024 268.3733  91.7080 14.98331726262558
Epoch: 2026-06-20T08:10Z
TLE epoch observation values (Epoch: 2026-06-20T08:10:38.290Z)
Latitude
-0.00002°
Longitude
4.41471°
Altitude
574.538 km
Speed
7.574 km/s
True Right ascension
02h 22m 31s
True Declination
0° 00' 00"
Sunlit
Object was in daylight at epoch
Visualization orbit readout
Latitude
Unknown
Longitude
Unknown
Altitude
Unknown
Speed
Unknown
Apparent Right ascension
Unknown
Apparent Declination
Unknown
Sunlit
N/A
Visualization observer readout
Local Sidereal Time
21:39:24
Azimuth
Unknown
Elevation
Unknown
Doppler factor
Unknown
Orbital elements
Apogee altitude
572.1 km
Perigee altitude
567.898 km
Semi-major axis
6,948.136 km
Eccentricity
0.0003
Inclination
69.9999°
RAAN
35.631°
Arg. of periapsis
268.3733°
True anomaly
91.74264°
Mean anomaly
91.708°
Eccentric anomaly
91.72532°
Mean motion
3.74749 °/min
Orbital period
96.06 mins
BSTAR
0.000015028
Loading maneuver chart data...
Computing Atmospheric mass density...

Documentation

Showing up to 5 results
|